DELTA 1 DEB

Satellite information

Favourite Embed

Satellite Type and Status

DEBRISIN ORBIT

Key statistics

Satellite DELTA 1 DEB at a glance.

Uptime

18034

Days in orbit

Revolutions

≈ 12.2

Per day

Orbit

SSO

Sun Synchronous Orbit

Inclination

100.4

Latest

Satellite identification and parameters

Extended collection of information and parameters for DELTA 1 DEB.

Object identification

Identified? True

Debris? True

Object name: DELTA 1 DEB

International designator: 1976-077CE

Object number (NORAD): 10834

Object ID (CCSDS): 10834

Country: UNITED STATES OF AMERICA (US)

Current information (Y/N): Y

RCS size: SMALL

Orbital parameters

Period: 118.303 minutes

Inclination: 100.3772 deg

SMA: 7982.826 km

Apoapsis: 1708.082 km

Periapsis: 1501.3 km

RAAN: 306.5367 deg

Eccentricy: 0.0129517

Argument of periapsis: 253.5902 deg

Mean anomaly: 128.4433 deg

Mean motion: 12.17216341 rev/day

Mean motion (dot): 0.00001537 rev/day2

B* drag term: 0.015315 1/REarth

Two-line elements (TLE)

Creation date: Dec. 11, 2025, 7:36 a.m.

Reference frame: TEME

Reference center: EARTH

Epoch: Dec. 10, 2025, 9:30 p.m. UTC

TLE line 0: 0 DELTA 1 DEB

TLE line 1: 1 10834U 76077CE 25344.89599708 .00001537 00000-0 15315-1 0 9998

TLE line 2: 2 10834 100.3772 306.5367 0129517 253.5902 128.4433 12.17216341182418

Live tracking on map

Real-time ground track for satellite DELTA 1 DEB.

In-orbit conjunctions

A list of the most updated potential collisions computed for object DELTA 1 DEB.

Target Orbit TCA Probability of collision Miss distance Type
COSMOS 1950 LEO 2025-04-29 06:14:09 0.0001719322 219.0 (m) PAYLOAD

Associated space launch

Meteorological satellite using radiometric imaging

DELTA 1 DEB was lifted into orbit during the mission ‘Delta 2310 | NOAA 5’, on board a Delta 2310 space rocket.

The launch took place on July 29, 1976, 5:07 p.m. from Space Launch Complex 2W.

For more information about the launch, click the button.

Launch to space Delta 2310 | NOAA 5
Delta 2310 | NOAA 5

Agency: N/A

Status: Launch Successful

Launch date: July 29, 1976, 5:07 p.m. UTC

Rocket: Delta 2310

Launch pad: Space Launch Complex 2W

Location: Vandenberg SFB, CA, USA

...

Latest news about this satellite

There are no fresh news available about this satellite. Check back as we update our databases every day.


Newsletter sign-up

Weekly statistics, charts and insights to help you stay on top of the space industry.